Satellite: FO-70
Catalog number: 37380
Epoch time:      12252.28996895
Element set:    0283
Inclination:      071.9733 deg
RA of node:       129.2355 deg
Eccentricity:    0.0017579
Arg of perigee:   167.8935 deg
Mean anomaly:     192.2653 deg
Mean motion:   14.76911609 rev/day
Decay rate:       9.32e-06 rev/day^2
Epoch rev:           04825
Checksum:              349

Satellite: ALMASAT-1
Catalog number: 38078
Epoch time:      12252.09177345
Element set:    0548
Inclination:      069.4825 deg
RA of node:       129.1306 deg
Eccentricity:    0.0746431
Arg of perigee:   144.9588 deg
Mean anomaly:     220.3015 deg
Mean motion:   14.11853200 rev/day
Decay rate:     2.6509e-04 rev/day^2
Epoch rev:           02924
Checksum:              297

Satellite: XATCOBEO
Catalog number: 38082
Epoch time:      12252.07965093
Element set:     538
Inclination:      069.4837 deg
RA of node:       124.7607 deg
Eccentricity:    0.0709198
Arg of perigee:   142.6195 deg
Mean anomaly:     222.6420 deg
Mean motion:   14.22518401 rev/day
Decay rate:     6.4262e-04 rev/day^2
Epoch rev:            2935
Checksum:              306

/EX
SB KEPS @ AMSAT  $ORB12253.W
Orbital Elements  12253.WEATHER

HR AMSAT ORBITAL ELEMENTS FOR WEATHER SATELLITES
FROM WA5QGD FORT WORTH,TX September 9, 2012
Send SUBSCRIBE KEPS/UNSUBSCRIBE KEPS to majordomo at amsat.org only
BID: ORB12253.W
TO ALL RADIO AMATEURS BT

Satellite: NOAA-10
Catalog number: 16969
Epoch time:      12252.91687556
Element set:    0057
Inclination:      098.5777 deg
RA of node:       280.4613 deg
Eccentricity:    0.0012272
Arg of perigee:   354.1307 deg
Mean anomaly:     005.9735 deg
Mean motion:   14.27575216 rev/day
Decay rate:       1.24e-06 rev/day^2
Epoch rev:           35181
Checksum:              311

Satellite: NOAA-11
Catalog number: 19531
Epoch time:      12252.86806269
Element set:    0049
Inclination:      098.7295 deg
RA of node:       336.2557 deg
Eccentricity:    0.0011253
Arg of perigee:   349.9125 deg
Mean anomaly:     010.1851 deg
Mean motion:   14.14979599 rev/day
Decay rate:        9.4e-07 rev/day^2
Epoch rev:           23634
Checksum:              323

Satellite: NOAA-12
Catalog number: 21263
Epoch time:      12252.92455155
Element set:    0535
Inclination:      098.7254 deg
RA of node:       274.1840 deg
Eccentricity:    0.0013408
Arg of perigee:   321.6896 deg
Mean anomaly:     038.3331 deg
Mean motion:   14.25516047 rev/day
Decay rate:       -4.8e-07 rev/day^2
Epoch rev:           10848
Checksum:              291

Satellite: MET-3/5
Catalog number: 21655
Epoch time:      12252.78970527
Element set:    0499
Inclination:      082.5523 deg
RA of node:       093.1283 deg
Eccentricity:    0.0014511
Arg of perigee:   112.7728 deg
Mean anomaly:     247.4929 deg
Mean motion:   13.17044364 rev/day
Decay rate:      -3.17e-06 rev/day^2
Epoch rev:           01289
Checksum:              309

Satellite: MET-2/21
Catalog number: 22782
Epoch time:      12252.82055937
Element set:    0522
Inclination:      082.5501 deg
RA of node:       326.1593 deg
Eccentricity:    0.0020912
Arg of perigee:   278.9959 deg
Mean anomaly:     080.8828 deg
Mean motion:   13.83688808 rev/day
Decay rate:       -1.0e-08 rev/day^2
Epoch rev:           96073
Checksum:              325

Satellite: OKEAN-4
Catalog number: 23317
Epoch time:      12252.91854617
Element set:    0051
Inclination:      082.5414 deg
RA of node:       312.9215 deg
Eccentricity:    0.0023287
Arg of perigee:   076.3317 deg
Mean anomaly:     284.0489 deg
Mean motion:   14.83937341 rev/day
Decay rate:      1.197e-05 rev/day^2
Epoch rev:           96722
Checksum:              306

Satellite: NOAA-14
Catalog number: 23455
Epoch time:      12252.90549961
Element set:    0015
Inclination:      098.8240 deg
RA of node:       335.3377 deg
Eccentricity:    0.0010405
Arg of perigee:   077.3904 deg
Mean anomaly:     282.8429 deg
Mean motion:   14.13869636 rev/day
Decay rate:        8.3e-07 rev/day^2
Epoch rev:           91262
Checksum:              311

Satellite: NOAA-15
Catalog number: 25338
Epoch time:      12252.11555053
Element set:    0394
Inclination:      098.6977 deg
RA of node:       238.2751 deg
Eccentricity:    0.0009830
Arg of perigee:   224.2087 deg
Mean anomaly:     135.8307 deg
Mean motion:   14.25115759 rev/day
Decay rate:       2.77e-06 rev/day^2
Epoch rev:           74466
Checksum:              319

Satellite: RESURS
Catalog number: 25394
Epoch time:      12252.92954130
Element set:     179
Inclination:      098.3280 deg
RA of node:       236.7909 deg
Eccentricity:    0.0002085
Arg of perigee:   023.8482 deg
Mean anomaly:     336.2795 deg
Mean motion:   14.24295024 rev/day
Decay rate:        7.8e-07 rev/day^2
Epoch rev:           73632
Checksum:              307

Satellite: FENGYUN1
Catalog number: 25730
Epoch time:      12252.89726020
Element set:     690
Inclination:      098.8498 deg
RA of node:       210.4516 deg
Eccentricity:    0.0019424
Arg of perigee:   117.4974 deg
Mean anomaly:     242.8173 deg
Mean motion:   14.09737557 rev/day
Decay rate:      1.061e-05 rev/day^2
Epoch rev:           68640
Checksum:              312

Satellite: OKEAN-0
Catalog number: 25860
Epoch time:      12252.94689974
Element set:    0738
Inclination:      097.9460 deg
RA of node:       213.9238 deg
Eccentricity:    0.0001483
Arg of perigee:   034.6010 deg
Mean anomaly:     325.5294 deg
Mean motion:   14.74292037 rev/day
Decay rate:       8.82e-06 rev/day^2
Epoch rev:           70691
Checksum:              320

Satellite: NOAA-16
Catalog number: 26536
Epoch time:      12252.11201533
Element set:    0882
Inclination:      099.0858 deg
RA of node:       295.4854 deg
Eccentricity:    0.0010233
Arg of perigee:   206.3988 deg
Mean anomaly:     153.6696 deg
Mean motion:   14.12778020 rev/day
Decay rate:       3.44e-06 rev/day^2
Epoch rev:           61674
Checksum:              309

Satellite: NOAA-17
Catalog number: 27453
Epoch time:      12252.18920900
Element set:    0828
Inclination:      098.3314 deg
RA of node:       275.0182 deg
Eccentricity:    0.0010729
Arg of perigee:   274.3074 deg
Mean anomaly:     085.6911 deg
Mean motion:   14.24478939 rev/day
Decay rate:       1.79e-06 rev/day^2
Epoch rev:           53057
Checksum:              315

Satellite: NOAA-18
Catalog number: 28654
Epoch time:      12252.27510877
Element set:    0310
Inclination:      099.0548 deg
RA of node:       211.0920 deg
Eccentricity:    0.0013532
Arg of perigee:   283.7525 deg
Mean anomaly:     076.2147 deg
Mean motion:   14.11696133 rev/day
Decay rate:       1.54e-06 rev/day^2
Epoch rev:           37628
Checksum:              291

Satellite: NOAA-19
Catalog number: 33591
Epoch time:      12252.30171983
Element set:    0499
Inclination:      098.8683 deg
RA of node:       191.0788 deg
Eccentricity:    0.0014461
Arg of perigee:   143.0753 deg
Mean anomaly:     217.1419 deg
Mean motion:   14.11383050 rev/day
Decay rate:       3.13e-06 rev/day^2
Epoch rev:           18473
Checksum:              303

/EX
SB KEPS @ AMSAT  $ORB12253.M
Orbital Elements  12253.MISC

HR AMSAT ORBITAL ELEMENTS FOR MANNED AND MISCELLANEOUS SATELLITES
FROM WA5QGD FORT WORTH,TX September 9, 2012
Send SUBSCRIBE KEPS/UNSUBSCRIBE KEPS to majordomo at amsat.org only
BID: ORB12253.M
TO ALL RADIO AMATEURS BT

Satellite: HUBBLE
Catalog number: 20580
Epoch time:      12250.61945086
Element set:    0065
Inclination:      028.4710 deg
RA of node:       330.5555 deg
Eccentricity:    0.0003584
Arg of perigee:   202.3050 deg
Mean anomaly:     157.7335 deg
Mean motion:   15.02755706 rev/day
Decay rate:      2.970e-05 rev/day^2
Epoch rev:           02699
Checksum:              276

Satellite: ISS
Catalog number: 25544
Epoch time:      12252.93488678
Element set:    0266
Inclination:      051.6467 deg
RA of node:       064.8635 deg
Eccentricity:    0.0015615
Arg of perigee:   050.3777 deg
Mean anomaly:     104.0148 deg
Mean motion:   15.50478392 rev/day
Decay rate:     1.4780e-04 rev/day^2
Epoch rev:           79103
Checksum:              316

Satellite: CO-58
Catalog number: 28895
Epoch time:      12252.17578731
Element set:    0271
Inclination:      097.9023 deg
RA of node:       114.7517 deg
Eccentricity:    0.0016482
Arg of perigee:   250.0885 deg
Mean anomaly:     109.8515 deg
Mean motion:   14.60734281 rev/day
Decay rate:       9.20e-06 rev/day^2
Epoch rev:           36577
Checksum:              325

Satellite: FALCON
Catalog number: 30776
Epoch time:      12252.95071647
Element set:    0457
Inclination:      035.4324 deg
RA of node:       125.0030 deg
Eccentricity:    0.0002218
Arg of perigee:   354.1062 deg
Mean anomaly:     005.9629 deg
Mean motion:   15.08142591 rev/day
Decay rate:      6.667e-05 rev/day^2
Epoch rev:           30290
Checksum:              270

Satellite: MAST
Catalog number: 31126
Epoch time:      12252.96062254
Element set:    0556
Inclination:      097.8756 deg
RA of node:       259.1699 deg
Eccentricity:    0.0092895
Arg of perigee:   209.0992 deg
Mean anomaly:     150.5011 deg
Mean motion:   14.54247404 rev/day
Decay rate:       6.20e-06 rev/day^2
Epoch rev:           28644
Checksum:              311

Satellite: CAPE1
Catalog number: 31130
Epoch time:      12251.96414388
Element set:    0561
Inclination:      097.8842 deg
RA of node:       254.5713 deg
Eccentricity:    0.0100168
Arg of perigee:   225.9932 deg
Mean anomaly:     133.2998 deg
Mean motion:   14.53055244 rev/day
Decay rate:       9.38e-06 rev/day^2
Epoch rev:           28579
Checksum:              316

